Notices

What's New in latest Release from April 7th, 2021:

- Updated Glossary, including Speed of Maximum Gust, and Total Hourly Precipitation

- Updated national and regional climate services offices contacts and prices information

- Addition of station inventory lists for 1981-2010, 1971-2000, and 1961-1990 Normals.

If you haven't already, please take our survey and provide feedback about our website: https://eccc.sondage-survey.ca/f/LanguageSelection.aspx?s=442ca660-fcf1-47c0-95a9-59707d6fd709

Hourly Data Report for October 09, 2019

CORAL HARBOUR A
NUNAVUT
Current Station Operator: NAVCAN

64°11'36.000" N
83°21'34.000" W
62.20 m
2301002
71915
YZS

Download Data

Hourly Data (October 2019)
Hourly Data Report for October 9, 2019
TIME
LST
Temp Definition
°C
Dew Point Definition
°C
Rel Hum Definition
%
Precip. Amount Definition
mm

Wind Dir Definition
10's deg

Wind Spd Definition
km/h
Visibility Definition
km
Stn Press Definition
kPa
Hmdx Definition


Wind Chill Definition


Weather Definition


00:00 1.3 0.9 97   12 22 19.3 100.02     Drizzle
01:00 1.2 1.0 98   11 22 24.1 99.94     Drizzle
02:00 1.7 1.5 99   12 27 24.1 99.89     Drizzle
03:00 1.9 1.2 95   13 39 24.1 99.81     Drizzle
04:00 1.6 1.1 96   12 35 24.1 99.76     Drizzle
05:00 1.4 1.1 98   12 33 24.1 99.81     Drizzle
06:00 1.3 0.9 97   11 30 24.1 99.72     Drizzle
07:00 1.6 1.2 97   10 34 12.9 99.57     Rain
08:00 2.1 1.8 98   11 35 16.1 99.54     Rain
09:00 2.3 2.0 98   11 35 9.7 99.42     Rain,Fog
10:00 2.9 2.7 98   13 36 9.7 99.41     Rain,Fog
11:00 3.1 2.8 98   14 35 9.7 99.33     Rain
12:00 3.2 3.0 99   14 35 0.8 99.25     Rain,Fog
13:00 3.2 3.1 99   16 29 0.2 99.25     Drizzle,Fog
14:00 2.7 2.5 99   25 25 6.4 99.30     Rain,Fog
15:00 2.2 1.5 95   25 25 24.1 99.39     LegendNANA
16:00 1.7 -0.9 83   25 32 24.1 99.46     Mostly Cloudy
17:00 1.0 -2.1 80   24 28 24.1 99.56     LegendNANA
18:00 0.9 -2.4 78   24 27 24.1 99.60     LegendNANA
19:00 0.6 -2.3 81   22 24 24.1 99.63     Mostly Cloudy
20:00 0.6 -2.3 81   21 27 24.1 99.65     LegendNANA
21:00 1.2 -2.2 78   20 32 24.1 99.60     LegendNANA
22:00 1.0 -1.6 83   20 32 24.1 99.58     Mostly Cloudy
23:00 1.0 -1.4 84   20 40 24.1 99.50     LegendNANA

Notes on Data Quality.

Legend

  • E = Estimated
  • M = Missing
  • NA = Not Available*
  • [empty] = Indicates an unobserved value
Date modified: